Showing default

LEMUR 2 AMANDA-SVANTE, 48269

Orbit data source: Space-Track

LEMUR 2 AMANDA-SVANTE, 48269 is a payload satellite owned by Spire (US) in SSO that was launched on Thu, 29 Apr 2021 UTC via a VEGA launch vehicle from the French Guiana (FRGUI). Payload-class satellites include a variety of spacecraft equipped with specific instruments for various scientific and technological missions. These include communications satellites like Starlink; space stations such as the ISS; scientific satellites like the Hubble; Earth observation satellites from companies like Planet Labs, Umbra, and HawkEye 360; GPS; miniature CubeSats for education and research; and military/defense satellites.

Loading next visibility...
Identifier
48269, 2021-034B
Orbit
SSO
Country
Flag of USUS
Related business
Manufacturer
Spire/Glasgow
Mission
Operational Commercial Com/MetRO
Bus & Motor
CUBESAT 3U, Unknown motor
Mass
4.6 kg wet, 4.6 kg dry
Launch date (UTC)
2021-04-29 (5 years ago)
Launch vehicle
VEGA
Launch site
French Guiana (FRGUI)
Object type
Payload
Rocket body
Debris
Shape & HBR
Box + 2 Pan, 1.0 m
Radar Cross Section
0.054 m², Small (<0.1 m²)

Expand to show TLE details & history
Last TLE update: 21 hours ago

TLE from 21 hours ago
0 LEMUR 2 AMANDA-SVANTE
1 48269U 21034B   25348.72277509  .00018501  00000-0  77640-3 0  9992
2 48269  97.5981  58.5166 0003509 159.8597 200.2778 15.23522181252872
Epoch: 2025-12-14T17:20Z
TLE epoch observation values (Epoch: 2025-12-14T17:20:47.767Z)
Latitude
-0.0001°
Longitude
74.68598°
Altitude
500.579 km
Speed
7.613 km/s
True Right ascension
03h 54m 03s
True Declination
0° 00' 00"
Sunlit
Object was in full shadow at epoch
Visualization orbit readout
Latitude
Unknown
Longitude
Unknown
Altitude
Unknown
Speed
Unknown
Apparent Right ascension
Unknown
Apparent Declination
Unknown
Sunlit
N/A
Visualization observer readout
Local Sidereal Time
13:23:55
Azimuth
Unknown
Elevation
Unknown
Doppler factor
Unknown
Orbital elements
Apogee altitude
494.607 km
Perigee altitude
489.785 km
Semi-major axis
6,870.333 km
Eccentricity
0.00035
Inclination
97.5981°
RAAN
58.5166°
Arg. of periapsis
159.8597°
True anomaly
200.26387°
Mean anomaly
200.2778°
Eccentric anomaly
200.27083°
Mean motion
3.81133 °/min
Orbital period
94.46 mins
BSTAR
0.0007764
Loading maneuver chart data...
Computing Atmospheric mass density...
Loading historical data...
Loading historical data...
Loading historical data...
Loading historical data...
Loading historical data...
Loading historical data...
Loading historical data...
Other satellites on launch #34 in the year 2021 (2021-04-29 UTC)

Documentation

Showing up to 5 results
|